SCP
0 0 0 0 0 0 0 0 0 0 0 0 0 0 0 0 0 0 0 0 0 0 0 0 0 0 0 0 0 0 0 0 0 0 0 0 0 0 0 0 0 0 0
0 0 0 0 0 0 0 0 0 0 0 0 0 0 0 0 0 0 0 0 0 0 0 0 0 0 0 0 0 0 0 0 0 0 0 0 0 0 0 0 0 0 0
0 0 0 0 0 0 0 0 0 0 0 0 0 0 0 0 0 0 0 0 0 0 0 0 0 0 0 0 0 0 0 0 0 0 0 0 0 0 0 0 0 0 0
0 0 0 1 1 0 0 0 0 0 0 0 0 0 0 0 0 0 0 0 0 0 0 0 0 0 0 0 0 0 0 0 0 0 0 0 0 0 0 0 0 0 0
0 0 1 1 1 1 0 0 0 0 0 0 0 0 0 0 0 0 0 0 0 0 0 0 0 0 0 0 0 0 0 0 0 0 0 0 0 0 0 0 0 0 0
1 1 1 1 1 1 1 0 0 0 0 0 0 0 0 0 0 0 0 0 0 0 0 0 0 0 0 0 0 0 0 0 0 0 0 0 0 0 0 0 0 0 0
1 1 1 1 1 1 1 1 1 1 0 0 0 0 0 0 0 0 0 0 0 0 0 0 0 0 0 0 0 0 0 0 0 0 0 0 0 0 0 0 0 0 0
1 1 1 1 1 1 1 1 1 1 1 1 0 0 0 0 0 0 0 0 0 0 0 0 0 0 0 0 0 0 0 0 0 0 0 0 0 0 0 0 0 0 0
1 1 1 1 1 1 1 1 1 1 1 1 1 0 0 0 0 0 0 0 0 0 0 0 0 0 0 0 0 0 0 0 0 0 0 0 0 1 1 1 1 0 0
1 1 1 1 1 1 1 1 1 1 1 1 1 0 0 0 0 1 1 1 1 1 1 1 1 1 1 1 1 0 0 0 0 0 0 0 0 1 1 1 1 1 1
1 1 1 1 1 1 1 1 1 1 1 1 1 1 1 0 0 1 1 1 1 1 1 1 1 1 1 1 1 1 1 1 1 0 0 0 0 1 1 1 1 1 1
1 1 1 1 1 1 1 1 1 1 1 1 1 1 1 1 1 1 1 1 1 1 1 1 1 1 1 1 1 1 1 1 1 1 1 1 1 1 1 2 1 1 1
2 2 1 1 1 1 1 1 1 1 1 1 1 1 1 1 1 1 1 1 1 1 1 1 1 1 1 1 1 1 1 1 1 1 1 1 1 1 2 2 2 2 2
4 3 2 2 2 1 1 1 1 1 1 1 1 1 1 1 1 2 1 1 1 1 1 1 1 2 2 1 1 1 1 1 1 1 1 1 1 1 2 2 2 2 2
6 5 4 3 2 2 2 1 1 1 1 1 1 1 2 2 2 2 1 1 1 1 1 1 1 1 1 2 2 1 1 1 1 1 1 2 2 2 2 3 3 3 2
9 8 6 4 3 3 2 2 2 2 2 2 2 2 2 3 2 2 1 1 1 1 1 1 1 1 1 2 2 1 1 2 2 2 2 2 3 3 3 3 3 3 3
10 10 8 6 4 4 4 4 3 3 2 2 2 2 3 3 3 2 2 1 1 1 1 1 1 1 1 1 1 1 1 2 2 2 2 2 2 3 3 4 4 4 3
12 11 10 9 7 6 6 5 5 4 3 3 3 3 3 3 3 2 2 1 1 1 1 1 1 1 1 1 1 1 1 1 1 1 1 2 2 2 3 3 3 4 4
13 12 11 10 9 8 7 6 6 5 4 3 3 3 3 2 2 2 2 1 1 1 1 1 1 1 1 1 1 1 1 1 1 1 1 1 1 2 2 2 2 3 3
10 10 10 9 9 8 7 6 5 5 4 3 2 2 2 2 2 1 1 1 1 1 1 1 1 1 1 1 1 0 0 1 1 1 1 1 1 1 1 2 2 2 2
8 8 7 7 7 7 6 5 5 4 3 2 2 2 2 1 1 1 1 1 1 0 0 0 0 0 0 0 0 0 0 0 0 1 1 1 1 1 1 2 2 2 2
8 8 7 6 5 5 4 3 3 3 3 3 2 2 1 1 1 1 1 1 1 0 0 0 0 0 0 0 0 0 0 0 0 0 1 1 1 1 1 2 2 2 2
8 6 5 4 3 3 2 2 2 2 3 2 2 2 1 1 1 1 1 1 1 0 0 0 0 0 0 0 0 0 0 0 0 0 0 0 1 1 1 1 2 2 2
4 3 2 1 1 1 1 1 2 2 2 2 2 2 2 1 1 1 1 1 1 1 0 0 0 0 0 0 0 0 0 0 0 0 0 0 0 0 1 1 1 2 2
1 1 1 0 1 1 1 1 1 1 1 1 2 2 2 1 1 1 1 1 1 1 1 0 0 0 0 0 0 0 0 0 0 0 0 0 0 0 0 1 1 1 1
1 0 0 0 0 0 0 1 1 1 1 1 1 1 1 1 1 2 1 1 1 1 1 0 0 0 0 0 0 0 0 0 0 0 0 0 0 0 0 1 1 1 1
Wind_Speed
10 12 18 18 18 18 17 16 16 16 16 16 16 16 16 16 16 16 16 15 14 13 13 12 12 12 12 11 12 12 12 12 13 13 14 14 13 12 12 14 13 10 14
15 14 19 19 19 18 18 17 17 16 16 16 15 15 15 15 15 15 14 14 13 13 12 11 11 11 11 11 11 11 11 11 11 12 12 12 12 10 10 13 12 8 14
17 14 17 19 19 19 18 17 17 17 16 16 15 15 14 14 14 14 13 13 12 12 11 11 10 10 10 10 9 9 9 8 9 10 10 5 6 10 11 13 13 13 12
17 12 15 20 20 19 18 17 17 17 16 16 15 15 14 14 13 13 13 12 12 11 11 10 10 9 9 9 8 8 7 7 7 8 5 4 4 10 12 13 12 12 11
14 11 15 22 20 19 18 17 17 16 16 16 15 14 14 14 13 13 12 12 11 11 11 10 9 9 8 8 7 7 6 6 6 5 3 4 4 10 13 14 13 12 11
13 11 15 21 20 19 18 17 16 16 16 15 15 14 13 13 13 12 12 11 11 10 10 10 9 9 9 8 7 7 7 7 5 3 3 4 5 12 15 15 14 13 12
12 10 14 21 21 20 18 17 17 16 16 15 15 14 13 13 12 12 11 11 10 10 10 10 10 10 10 9 9 8 8 8 4 3 3 4 6 13 16 16 16 15 14
16 12 12 20 21 20 19 18 17 16 16 15 15 14 13 13 12 12 11 11 11 11 11 11 11 11 11 11 11 10 10 9 7 5 4 5 9 14 17 17 17 17 16
15 13 10 12 15 19 19 18 17 17 16 15 15 15 14 13 13 12 12 12 12 12 12 12 13 13 12 12 12 12 12 12 7 4 6 4 10 17 19 18 18 17 17
12 12 11 10 9 10 12 17 18 17 17 16 16 15 15 14 14 14 12 12 14 14 14 15 14 14 13 13 13 14 14 12 6 6 4 5 10 16 20 19 19 18 18
13 11 11 11 9 9 8 14 15 16 16 16 14 16 14 7 7 8 12 14 16 16 16 16 16 15 14 13 15 15 13 5 5 5 5 10 12 16 19 19 19 19 19
16 14 12 12 11 10 10 8 6 8 8 8 6 8 6 5 6 8 10 17 18 18 18 18 17 15 12 6 10 13 6 6 6 6 7 13 14 17 19 20 19 19 19
17 16 14 13 12 11 8 7 5 5 5 6 7 7 5 5 4 6 4 7 9 13 9 10 10 7 7 6 6 6 7 6 5 6 8 14 15 18 20 21 21 20 19
16 16 15 14 12 12 9 7 7 6 5 6 7 8 6 4 5 5 4 4 4 3 4 5 4 6 7 8 8 8 8 6 5 5 7 15 15 17 20 22 21 20 19
15 16 15 13 12 11 8 7 8 7 6 7 6 7 8 6 5 4 3 2 2 2 3 3 4 6 6 7 7 8 9 9 8 7 6 12 14 16 18 20 20 21 20
12 12 13 12 10 9 7 6 5 5 5 5 5 7 8 6 4 4 3 2 2 2 3 3 4 4 4 4 6 7 7 7 7 8 7 8 13 15 17 19 20 19 20
8 7 8 8 7 6 6 5 4 3 3 3 4 5 6 5 5 4 3 2 2 2 2 2 2 2 3 3 4 5 5 6 6 7 7 6 7 13 17 18 18 19 19
8 8 7 4 4 2 3 2 2 2 2 2 2 3 4 5 4 3 2 2 1 1 0 1 1 1 2 2 3 4 4 4 5 6 6 7 6 7 11 18 19 19 20
9 8 7 4 3 3 2 1 1 2 1 2 2 3 4 4 5 4 3 2 1 1 0 0 0 1 2 3 3 4 4 4 5 6 6 7 7 7 6 10 17 19 21
8 8 7 4 2 2 2 2 3 2 1 1 2 3 5 5 5 4 3 2 2 2 1 0 1 1 2 2 3 4 4 5 5 5 6 6 5 7 7 8 7 11 19
8 7 4 2 1 2 1 1 0 2 2 2 3 5 5 5 5 5 3 3 3 2 1 1 1 1 1 1 1 3 4 4 4 4 4 4 5 6 6 7 6 6 6
7 5 2 2 1 1 2 2 2 2 2 2 2 4 5 5 5 5 5 4 3 2 1 1 1 0 1 0 1 1 4 5 4 3 2 3 4 4 5 7 7 7 7
6 5 5 5 4 3 2 0 1 2 1 1 1 2 3 4 5 5 5 5 4 4 3 2 2 2 1 1 1 2 0 2 4 4 3 2 3 3 4 4 6 6 7
7 7 7 6 5 4 4 3 2 1 1 1 2 1 2 2 3 4 5 5 5 4 4 4 3 3 3 2 2 1 3 3 2 4 4 3 3 3 4 4 4 4 5
7 6 6 6 6 6 6 6 4 3 2 1 2 3 2 2 2 2 3 3 4 4 5 5 4 4 3 3 3 2 2 2 4 3 4 4 3 3 3 3 3 3 4
5 5 5 6 6 6 6 6 6 6 5 5 5 4 4 3 3 4 2 2 3 4 5 5 5 5 4 4 4 3 3 3 3 3 4 4 4 4 3 3 2 2 1
Wind_Direction
158 161 154 149 146 145 143 139 135 131 129 126 124 122 120 119 120 122 124 127 126 125 125 123 122 121 121 119 118 118 120 121 123 124 125 124 122 122 126 127 120 117 118
153 157 152 149 148 149 147 144 141 139 137 134 132 129 126 125 125 126 128 130 131 130 129 129 128 128 128 127 126 127 127 128 130 130 129 127 122 119 129 134 126 131 127
148 153 151 149 150 151 150 149 147 145 144 142 140 137 135 134 134 134 134 135 137 136 135 135 135 135 137 137 136 136 137 137 138 137 132 128 129 123 121 131 133 134 132
146 149 151 150 151 153 153 153 151 150 149 148 147 145 144 144 143 142 142 143 145 146 147 147 147 147 149 150 151 151 152 153 156 157 149 159 162 145 138 138 140 141 141
144 148 154 152 154 155 156 156 156 155 154 154 153 153 152 152 152 151 152 153 154 156 158 160 161 162 165 168 171 173 176 179 184 189 187 191 191 168 158 152 152 153 152
146 150 156 154 156 158 159 160 161 160 160 159 159 160 160 160 161 161 163 164 166 168 170 172 175 177 181 186 193 200 205 209 208 214 232 208 191 187 174 166 163 164 164
148 154 158 157 159 161 163 165 165 165 165 165 166 167 168 170 171 172 174 177 179 182 185 187 190 192 196 200 208 217 227 235 226 216 225 213 198 195 185 176 173 172 174
153 156 160 162 163 165 167 169 170 171 171 172 174 176 178 180 183 185 187 190 193 197 199 202 205 206 208 211 215 223 232 243 251 237 214 209 207 203 194 185 181 180 181
156 159 162 166 168 170 172 174 175 177 178 180 182 185 187 190 194 197 200 204 207 210 213 214 216 217 217 218 221 226 232 240 246 256 259 229 212 208 202 194 190 187 187
160 166 167 166 167 170 175 180 182 183 185 188 191 193 197 200 204 208 211 217 220 221 222 223 224 226 225 224 227 230 235 241 239 244 252 250 235 216 208 201 197 195 194
167 174 172 171 170 171 176 187 187 189 193 194 198 202 203 208 212 217 224 226 230 231 230 229 229 230 230 232 234 235 238 232 227 238 243 248 243 226 217 208 203 201 200
175 180 179 177 176 175 184 185 187 194 197 198 198 204 201 201 213 223 231 236 238 238 236 234 232 231 232 232 239 240 234 229 231 238 240 242 241 232 226 216 210 207 205
177 179 181 181 180 181 189 180 187 197 197 204 205 206 205 207 220 230 231 244 244 243 238 237 234 228 225 223 224 226 230 231 231 236 242 244 244 238 232 222 216 212 209
176 182 180 181 182 187 189 184 187 195 197 203 208 207 204 209 218 223 227 233 232 229 223 225 224 227 229 230 228 230 233 231 231 233 243 250 254 252 240 227 220 216 213
179 181 177 177 182 188 190 190 191 197 199 202 202 206 204 206 213 213 222 223 226 217 215 222 226 232 236 240 239 237 237 235 232 229 239 250 255 256 246 235 225 222 219
175 172 171 173 175 180 183 190 190 191 195 195 196 200 200 198 196 197 206 213 225 217 215 216 222 228 234 236 243 240 240 237 232 227 227 240 249 251 246 235 228 227 227
136 134 152 166 170 172 172 179 175 169 172 180 190 187 184 182 182 181 181 201 227 223 219 222 237 229 238 239 245 245 240 234 233 231 230 227 234 242 239 235 231 228 229
86 91 108 129 122 129 130 150 131 114 124 147 154 155 168 179 171 162 163 196 219 198 210 241 243 254 266 264 264 264 257 249 244 238 232 228 223 232 232 232 234 233 235
73 76 73 63 85 68 48 48 53 84 118 137 140 156 172 168 164 152 155 168 137 103 81 284 170 211 257 276 272 265 262 257 252 251 242 235 226 222 224 235 237 237 240
81 75 59 69 90 95 55 40 7 353 272 157 166 182 178 170 158 147 149 152 129 110 75 26 253 245 237 259 283 288 270 259 252 249 249 247 237 230 227 231 233 240 243
62 61 63 82 145 135 109 113 64 266 247 202 196 194 183 172 160 156 153 148 136 139 174 219 216 291 288 297 340 317 302 282 269 261 257 259 258 250 233 228 226 229 239
68 67 73 55 65 151 186 195 194 222 237 222 213 197 189 176 171 169 165 165 160 156 167 171 170 211 282 348 133 331 332 334 335 310 294 269 271 271 253 240 228 223 226
78 77 69 47 23 8 345 26 345 344 358 8 279 229 216 191 187 180 179 171 177 174 188 203 192 175 227 277 189 170 201 287 309 309 313 314 318 300 278 262 240 228 223
60 63 60 58 41 19 16 34 41 30 20 326 298 287 283 239 211 203 200 185 191 192 194 203 187 185 184 240 275 211 196 203 250 303 311 311 317 311 303 292 269 238 219
60 57 49 49 42 29 28 28 29 28 15 343 353 1 346 310 294 262 228 204 208 206 203 200 193 199 195 205 217 229 237 228 215 231 284 307 319 301 298 291 274 249 221
72 66 54 51 39 28 33 34 34 28 19 21 13 360 348 334 335 332 299 240 225 217 212 208 205 208 211 215 219 214 212 221 223 224 257 282 293 291 297 302 297 274 240